#timestamp,LO_Frequency,Hit 
1503777615.4,286047004.2,N
1503777635.2,286047003.9,N
1503777655.1,286047004.4,N
1503777656.0,286047004.4,N
1503777675.8,286047004.3,N
1503777695.6,286047004.4,N
1503777715.5,286047004.6,N
1503777735.3,286047005.1,N
1503777755.1,286047003.1,N
1503777775.8,286047005.1,N
1503777795.7,286047007.6,P
1503777815.5,286047001.4,N
1503777835.4,286047001.4,N
1503777855.2,286047003.6,N
1503777875.0,286047003.7,N
1503777875.9,286047003.7,N
1503777895.8,286047004.3,N
1503777915.6,286047003.3,N
1503777935.4,286047003.8,N
1503777955.2,286047000.6,N
1503777975.1,286047000.4,N
1503777976.0,286047000.4,N
1503777995.8,286047002.1,N
1503778015.6,286047001.7,N
1503778035.5,286046998.3,N
1503778055.3,286046998.6,N
1503778075.1,286047002.7,N
1503778095.9,286047003.0,N
1503778115.7,286047004.8,N
1503778135.5,286047006.5,P
1503778155.4,286047010.5,P
1503778175.2,286047011.6,P
1503778195.0,286047011.7,P
1503778196.0,286047011.7,P
1503778215.8,286047006.4,P
1503778235.6,286047011.9,P
1503778255.5,286047003.2,N
1503778275.3,286047005.5,N
1503778295.1,286047009.1,N
1503778315.8,286047007.2,N
1503778335.7,286047007.6,N
1503778355.5,286047006.9,N
1503778375.4,286047012.4,P
1503778395.2,286047006.7,N
1503778415.0,286047010.9,P
1503778415.9,286047010.9,P
1503778435.8,286047007.5,P
1503778455.6,286047003.5,N
1503778475.4,286047005.1,N
1503778495.3,286047007.2,N
1503778515.1,286047005.9,N
1503778516.0,286047005.9,N
1503778535.8,286047005.1,N
1503778555.7,286047003.4,N
1503778575.5,286047003.4,N
1503778595.3,286047007.0,N
1503778615.1,286047006.1,N
1503778635.9,286047006.6,P
1503778655.7,286047004.3,P
1503778675.6,286047004.2,P
1503778695.4,286047004.1,P
1503778715.2,286046995.9,P
1503778735.1,286046995.9,N
1503778736.0,286046995.9,N
1503778755.8,286046995.1,N
1503778775.6,286046993.8,N
1503778795.5,286046990.6,N
1503778815.3,286046993.6,N
1503778835.1,286046993.9,N
1503778855.8,286046994.2,N
1503778875.7,286046994.7,N
1503778895.5,286046992.7,N
1503778915.3,286046993.8,N
1503778935.2,286046992.7,N
1503778955.9,286046992.1,N
1503778975.7,286046989.5,N
1503778995.6,286046985.4,P
1503779015.4,286046994.1,N
1503779035.2,286046995.2,N
1503779055.1,286046993.5,N
1503779056.0,286046993.5,N
1503779075.8,286046990.1,N
1503779095.6,286046995.2,N
1503779115.5,286046999.2,N
1503779135.3,286046993.7,N
1503779155.1,286046990.1,N
1503779175.9,286046994.6,N
1503779195.7,286046995.3,N
1503779215.5,286046995.9,N
1503779235.4,286046992.2,N
1503779255.2,286046993.8,N
1503779275.0,286046992.1,N
1503779275.9,286046992.1,N
1503779295.8,286046991.4,P
1503779315.6,286046996.2,P
1503779335.4,286046996.8,N
1503779355.3,286046999.6,N
1503779375.1,286046999.9,N
1503779376.0,286046999.9,N
1503779395.8,286046998.2,N
1503779415.7,286046996.8,N
1503779435.5,286046999.7,N
1503779455.2,286047004.4,N
1503779475.0,286047001.9,N
1503779475.9,286047001.9,N
1503779495.7,286047000.5,N
1503779515.6,286047002.8,N
1503779535.4,286047001.8,N
1503779555.8,286047004.3,N
1503779575.6,286047001.1,N
1503779595.5,286047002.6,N
1503779615.3,286047000.4,N
1503779635.1,286046999.0,N
1503779655.9,286046999.2,N
1503779675.7,286047000.1,N
1503779695.5,286046999.2,N
1503779715.3,286046998.0,N
1503779735.2,286046996.6,N
1503779755.0,286046999.1,N
1503779755.9,286046999.1,N
1503779775.7,286046998.7,N
1503779795.6,286046995.2,N
1503779815.4,286046995.2,N
1503779835.2,286046996.3,N
1503779855.1,286046996.1,N
1503779856.0,286046996.1,N
1503779875.8,286046995.5,N
1503779895.6,286046996.3,N
1503779915.5,286046994.7,N
1503779935.3,286046993.3,N
1503779955.1,286046995.3,N
1503779975.9,286046997.5,N
1503779995.7,286046996.5,N
1503780015.5,286047000.9,N
1503780035.4,286046998.8,N
1503780055.2,286046998.0,N
1503780075.0,286046995.1,N
1503780075.9,286046995.1,N
1503780095.8,286046994.4,N
1503780115.6,286046991.1,P
1503780135.4,286046996.2,N
1503780155.3,286046997.3,N
1503780175.1,286046995.7,N
1503780176.0,286046995.7,N
1503780195.8,286046991.7,P
1503780215.7,286046995.8,N
1503780235.5,286046999.0,N
1503780255.7,286046999.8,N
1503780275.5,286047000.5,N
1503780295.3,286046999.7,N
1503780315.2,286046996.9,N
1503780335.9,286046996.5,N
1503780355.7,286046996.7,N
1503780375.6,286046995.8,N
1503780395.4,286046997.2,N
1503780415.2,286046998.9,N
1503780435.0,286046996.8,N
1503780436.0,286046996.8,N
1503780455.8,286046998.9,N
1503780475.6,286047000.4,N
1503780495.4,286047000.6,N
1503780515.3,286047001.2,N
1503780535.1,286047001.0,N
1503780555.8,286047002.0,N
1503780575.7,286047002.2,N
1503780595.5,286047001.8,N
1503780615.3,286047004.4,N
1503780635.2,286047004.1,N
1503780655.9,286046999.8,N
1503780675.7,286047002.4,N
1503780695.6,286047004.3,N
1503780715.4,286047001.9,N
1503780735.2,286047003.4,N
1503780755.1,286047005.6,N
1503780756.0,286047005.6,N
1503780775.8,286047003.6,N
1503780795.6,286047002.0,N
1503780815.4,286047003.0,N
1503780835.3,286047001.4,N
1503780855.1,286047004.4,N
1503780875.8,286047002.3,N
1503780895.7,286047000.7,N
1503780915.5,286047001.3,N
1503780935.3,286047000.0,N
1503780955.2,286047000.3,N
1503780975.9,286047001.3,N
1503780995.7,286047001.4,N
1503781015.6,286047001.6,N
1503781035.4,286047003.8,N
1503781055.2,286047004.4,N
1503781075.1,286047003.1,N
1503781076.0,286047003.1,N
1503781095.8,286047003.5,N
1503781115.6,286047004.6,N
1503781135.5,286047008.9,P
1503781155.3,286047004.4,N
1503781175.1,286047002.8,N
1503781195.9,286047001.2,N
